owner,sensor,date,latitude,longitude,air_temperature,qcFlag 
LUMCON,ioos:station:LUMCON:103:1,2008-02-01T17:00:00Z,30.1889,-90.1683,6.8,11111222 
LUMCON,ioos:station:LUMCON:103:1,2008-02-01T18:00:00Z,30.1889,-90.1683,8.2,11111222 
LUMCON,ioos:station:LUMCON:103:1,2008-02-01T19:00:00Z,30.1889,-90.1683,8.9,11111222 
LUMCON,ioos:station:LUMCON:103:1,2008-02-01T20:00:00Z,30.1889,-90.1683,10.5,11111222 
LUMCON,ioos:station:LUMCON:103:1,2008-02-01T21:00:00Z,30.1889,-90.1683,11.1,11111222 
LUMCON,ioos:station:LUMCON:103:1,2008-02-01T22:00:00Z,30.1889,-90.1683,10.6,11111222 
LUMCON,ioos:station:LUMCON:103:1,2008-02-01T23:00:00Z,30.1889,-90.1683,10.5,11111222 
LUMCON,ioos:station:LUMCON:103:1,2008-02-02T00:00:00Z,30.1889,-90.1683,10.0,11111222 
LUMCON,ioos:station:LUMCON:103:1,2008-02-02T01:00:00Z,30.1889,-90.1683,10.0,11111222 
LUMCON,ioos:station:LUMCON:103:1,2008-02-02T02:00:00Z,30.1889,-90.1683,10.1,11111222 
LUMCON,ioos:station:LUMCON:103:1,2008-02-02T03:00:00Z,30.1889,-90.1683,10.3,11111222 
LUMCON,ioos:station:LUMCON:103:1,2008-02-06T15:00:00Z,30.1889,-90.1683,15.5,11111222 
LUMCON,ioos:station:LUMCON:103:1,2008-02-06T16:00:00Z,30.1889,-90.1683,16.4,11111222 
LUMCON,ioos:station:LUMCON:103:1,2008-02-06T17:00:00Z,30.1889,-90.1683,16.9,11111222 
LUMCON,ioos:station:LUMCON:103:1,2008-02-06T18:00:00Z,30.1889,-90.1683,17.2,11111222 
LUMCON,ioos:station:LUMCON:103:1,2008-02-06T20:00:00Z,30.1889,-90.1683,17.4,11111222 
LUMCON,ioos:station:LUMCON:103:1,2008-02-06T21:00:00Z,30.1889,-90.1683,17.7,11111222 
LUMCON,ioos:station:LUMCON:103:1,2008-02-06T22:00:00Z,30.1889,-90.1683,17.3,11111222 
LUMCON,ioos:station:LUMCON:103:1,2008-02-06T23:00:00Z,30.1889,-90.1683,17.0,11111222 
LUMCON,ioos:station:LUMCON:103:1,2008-02-07T00:00:00Z,30.1889,-90.1683,15.1,11111222 
LUMCON,ioos:station:LUMCON:103:1,2008-02-07T01:00:00Z,30.1889,-90.1683,14.0,11111222 
LUMCON,ioos:station:LUMCON:103:1,2008-02-07T16:00:00Z,30.1889,-90.1683,10.5,11111222 
LUMCON,ioos:station:LUMCON:103:1,2008-02-07T21:00:00Z,30.1889,-90.1683,13.2,11111222 
LUMCON,ioos:station:LUMCON:103:1,2008-02-08T00:00:00Z,30.1889,-90.1683,13.4,11111222 
LUMCON,ioos:station:LUMCON:103:1,2008-02-08T15:00:00Z,30.1889,-90.1683,12.0,11111222 
LUMCON,ioos:station:LUMCON:103:1,2008-02-12T20:00:00Z,30.1889,-90.1683,19.5,11111222 
LUMCON,ioos:station:LUMCON:103:1,2008-02-12T21:00:00Z,30.1889,-90.1683,17.3,11111222 
LUMCON,ioos:station:LUMCON:103:1,2008-02-12T22:00:00Z,30.1889,-90.1683,13.5,11111222 
LUMCON,ioos:station:LUMCON:103:1,2008-02-12T23:00:00Z,30.1889,-90.1683,13.8,11111222 
LUMCON,ioos:station:LUMCON:103:1,2008-02-13T00:00:00Z,30.1889,-90.1683,14.0,11111222 
LUMCON,ioos:station:LUMCON:103:1,2008-02-13T01:00:00Z,30.1889,-90.1683,14.3,11111222 
LUMCON,ioos:station:LUMCON:103:1,2008-02-13T02:00:00Z,30.1889,-90.1683,14.5,11111222 
LUMCON,ioos:station:LUMCON:103:1,2008-02-13T03:00:00Z,30.1889,-90.1683,14.5,11111222 
LUMCON,ioos:station:LUMCON:103:1,2008-02-13T04:00:00Z,30.1889,-90.1683,14.5,11111222 
LUMCON,ioos:station:LUMCON:103:1,2008-02-13T05:00:00Z,30.1889,-90.1683,14.3,11111222 
LUMCON,ioos:station:LUMCON:103:1,2008-02-13T06:00:00Z,30.1889,-90.1683,12.4,11111222 
LUMCON,ioos:station:LUMCON:103:1,2008-02-13T07:00:00Z,30.1889,-90.1683,10.6,11111222 
LUMCON,ioos:station:LUMCON:103:1,2008-02-13T08:00:00Z,30.1889,-90.1683,8.6,11111222 
LUMCON,ioos:station:LUMCON:103:1,2008-02-13T09:00:00Z,30.1889,-90.1683,7.5,11111222 
LUMCON,ioos:station:LUMCON:103:1,2008-02-13T10:00:00Z,30.1889,-90.1683,6.3,11111222 
LUMCON,ioos:station:LUMCON:103:1,2008-02-13T11:00:00Z,30.1889,-90.1683,5.7,11111222 
LUMCON,ioos:station:LUMCON:103:1,2008-02-13T12:00:00Z,30.1889,-90.1683,5.6,11111222 
LUMCON,ioos:station:LUMCON:103:1,2008-02-13T13:00:00Z,30.1889,-90.1683,4.5,11111222 
LUMCON,ioos:station:LUMCON:103:1,2008-02-13T14:00:00Z,30.1889,-90.1683,4.4,11111222 
LUMCON,ioos:station:LUMCON:103:1,2008-02-13T15:00:00Z,30.1889,-90.1683,5.0,11111222 
LUMCON,ioos:station:LUMCON:103:1,2008-02-13T16:00:00Z,30.1889,-90.1683,5.5,11111222 
LUMCON,ioos:station:LUMCON:103:1,2008-02-13T17:00:00Z,30.1889,-90.1683,6.3,11111222 
LUMCON,ioos:station:LUMCON:103:1,2008-02-13T18:00:00Z,30.1889,-90.1683,7.7,11111222 
LUMCON,ioos:station:LUMCON:103:1,2008-02-13T19:00:00Z,30.1889,-90.1683,9.0,11111222 
LUMCON,ioos:station:LUMCON:103:1,2008-02-13T20:00:00Z,30.1889,-90.1683,10.0,11111222 
LUMCON,ioos:station:LUMCON:103:1,2008-02-13T21:00:00Z,30.1889,-90.1683,10.9,11111222 
LUMCON,ioos:station:LUMCON:103:1,2008-02-13T22:00:00Z,30.1889,-90.1683,11.3,11111222 
LUMCON,ioos:station:LUMCON:103:1,2008-02-13T23:00:00Z,30.1889,-90.1683,11.1,11111222 
LUMCON,ioos:station:LUMCON:103:1,2008-02-14T00:00:00Z,30.1889,-90.1683,10.3,11111222 
LUMCON,ioos:station:LUMCON:103:1,2008-02-14T01:00:00Z,30.1889,-90.1683,9.9,11111222 
LUMCON,ioos:station:LUMCON:103:1,2008-02-14T02:00:00Z,30.1889,-90.1683,9.1,11111222 
LUMCON,ioos:station:LUMCON:103:1,2008-02-14T03:00:00Z,30.1889,-90.1683,8.5,11111222 
LUMCON,ioos:station:LUMCON:103:1,2008-02-14T04:00:00Z,30.1889,-90.1683,8.1,11111222 
LUMCON,ioos:station:LUMCON:103:1,2008-02-14T05:00:00Z,30.1889,-90.1683,8.1,11111222 
LUMCON,ioos:station:LUMCON:103:1,2008-02-14T06:00:00Z,30.1889,-90.1683,7.8,11111222 
LUMCON,ioos:station:LUMCON:103:1,2008-02-14T07:00:00Z,30.1889,-90.1683,7.5,11111222 
LUMCON,ioos:station:LUMCON:103:1,2008-02-14T08:00:00Z,30.1889,-90.1683,8.0,11111222 
LUMCON,ioos:station:LUMCON:103:1,2008-02-14T09:00:00Z,30.1889,-90.1683,8.3,11111222 
LUMCON,ioos:station:LUMCON:103:1,2008-02-14T10:00:00Z,30.1889,-90.1683,7.7,11111222 
LUMCON,ioos:station:LUMCON:103:1,2008-02-14T11:00:00Z,30.1889,-90.1683,6.6,11111222 
LUMCON,ioos:station:LUMCON:103:1,2008-02-14T12:00:00Z,30.1889,-90.1683,6.9,11111222 
LUMCON,ioos:station:LUMCON:103:1,2008-02-14T13:00:00Z,30.1889,-90.1683,7.5,11111222 
LUMCON,ioos:station:LUMCON:103:1,2008-02-14T14:00:00Z,30.1889,-90.1683,8.4,11111222 
LUMCON,ioos:station:LUMCON:103:1,2008-02-14T15:00:00Z,30.1889,-90.1683,10.0,11111222 
LUMCON,ioos:station:LUMCON:103:1,2008-02-14T16:00:00Z,30.1889,-90.1683,10.8,11111222 
LUMCON,ioos:station:LUMCON:103:1,2008-02-14T17:00:00Z,30.1889,-90.1683,11.8,11111222 
LUMCON,ioos:station:LUMCON:103:1,2008-02-14T18:00:00Z,30.1889,-90.1683,12.9,11111222 
LUMCON,ioos:station:LUMCON:103:1,2008-02-14T19:00:00Z,30.1889,-90.1683,14.0,11111222 
LUMCON,ioos:station:LUMCON:103:1,2008-02-14T20:00:00Z,30.1889,-90.1683,14.9,11111222 
LUMCON,ioos:station:LUMCON:103:1,2008-02-14T21:00:00Z,30.1889,-90.1683,14.9,11111222 
LUMCON,ioos:station:LUMCON:103:1,2008-02-14T22:00:00Z,30.1889,-90.1683,15.1,11111222 
LUMCON,ioos:station:LUMCON:103:1,2008-02-14T23:00:00Z,30.1889,-90.1683,15.1,11111222 
LUMCON,ioos:station:LUMCON:103:1,2008-02-15T00:00:00Z,30.1889,-90.1683,14.5,11111222 
LUMCON,ioos:station:LUMCON:103:1,2008-02-15T01:00:00Z,30.1889,-90.1683,14.4,11111222 
LUMCON,ioos:station:LUMCON:103:1,2008-02-15T02:00:00Z,30.1889,-90.1683,14.5,11111222 
LUMCON,ioos:station:LUMCON:103:1,2008-02-15T03:00:00Z,30.1889,-90.1683,14.3,11111222 
LUMCON,ioos:station:LUMCON:103:1,2008-02-15T04:00:00Z,30.1889,-90.1683,14.7,11111222 
LUMCON,ioos:station:LUMCON:103:1,2008-02-15T05:00:00Z,30.1889,-90.1683,14.9,11111222 
LUMCON,ioos:station:LUMCON:103:1,2008-02-15T06:00:00Z,30.1889,-90.1683,15.0,11111222 
LUMCON,ioos:station:LUMCON:103:1,2008-02-15T07:00:00Z,30.1889,-90.1683,15.1,11111222 
LUMCON,ioos:station:LUMCON:103:1,2008-02-15T08:00:00Z,30.1889,-90.1683,15.2,11111222 
LUMCON,ioos:station:LUMCON:103:1,2008-02-15T09:00:00Z,30.1889,-90.1683,15.0,11111222 
LUMCON,ioos:station:LUMCON:103:1,2008-02-15T10:00:00Z,30.1889,-90.1683,15.0,11111222 
LUMCON,ioos:station:LUMCON:103:1,2008-02-15T11:00:00Z,30.1889,-90.1683,14.4,11111222 
LUMCON,ioos:station:LUMCON:103:1,2008-02-15T12:00:00Z,30.1889,-90.1683,14.5,11111222 
LUMCON,ioos:station:LUMCON:103:1,2008-02-15T13:00:00Z,30.1889,-90.1683,14.7,11111222 
LUMCON,ioos:station:LUMCON:103:1,2008-02-15T14:00:00Z,30.1889,-90.1683,15.1,11111222 
LUMCON,ioos:station:LUMCON:103:1,2008-02-15T15:00:00Z,30.1889,-90.1683,15.2,11111222 
LUMCON,ioos:station:LUMCON:103:1,2008-02-15T16:00:00Z,30.1889,-90.1683,16.1,11111222 
LUMCON,ioos:station:LUMCON:103:1,2008-02-15T17:00:00Z,30.1889,-90.1683,16.6,11111222 
LUMCON,ioos:station:LUMCON:103:1,2008-02-15T18:00:00Z,30.1889,-90.1683,16.7,11111222 
LUMCON,ioos:station:LUMCON:103:1,2008-02-15T19:00:00Z,30.1889,-90.1683,16.5,11111222 
LUMCON,ioos:station:LUMCON:103:1,2008-02-15T20:00:00Z,30.1889,-90.1683,16.5,11111222 
LUMCON,ioos:station:LUMCON:103:1,2008-02-15T21:00:00Z,30.1889,-90.1683,16.3,11111222 
LUMCON,ioos:station:LUMCON:103:1,2008-02-15T22:00:00Z,30.1889,-90.1683,16.2,11111222 
LUMCON,ioos:station:LUMCON:103:1,2008-02-15T23:00:00Z,30.1889,-90.1683,16.1,11111222 
LUMCON,ioos:station:LUMCON:103:1,2008-02-16T00:00:00Z,30.1889,-90.1683,15.8,11111222 
LUMCON,ioos:station:LUMCON:103:1,2008-02-16T01:00:00Z,30.1889,-90.1683,15.9,11111222 
LUMCON,ioos:station:LUMCON:103:1,2008-02-16T02:00:00Z,30.1889,-90.1683,15.9,11111222 
LUMCON,ioos:station:LUMCON:103:1,2008-02-16T03:00:00Z,30.1889,-90.1683,15.9,11111222 
LUMCON,ioos:station:LUMCON:103:1,2008-02-16T04:00:00Z,30.1889,-90.1683,15.7,11111222 
LUMCON,ioos:station:LUMCON:103:1,2008-02-16T05:00:00Z,30.1889,-90.1683,15.6,11111222 
LUMCON,ioos:station:LUMCON:103:1,2008-02-16T06:00:00Z,30.1889,-90.1683,15.7,11111222 
LUMCON,ioos:station:LUMCON:103:1,2008-02-16T07:00:00Z,30.1889,-90.1683,15.6,11111222 
LUMCON,ioos:station:LUMCON:103:1,2008-02-16T08:00:00Z,30.1889,-90.1683,15.6,11111222 
LUMCON,ioos:station:LUMCON:103:1,2008-02-16T09:00:00Z,30.1889,-90.1683,15.7,11111222 
LUMCON,ioos:station:LUMCON:103:1,2008-02-16T10:00:00Z,30.1889,-90.1683,15.5,11111222 
LUMCON,ioos:station:LUMCON:103:1,2008-02-16T11:00:00Z,30.1889,-90.1683,15.3,11111222 
LUMCON,ioos:station:LUMCON:103:1,2008-02-16T12:00:00Z,30.1889,-90.1683,15.3,11111222 
LUMCON,ioos:station:LUMCON:103:1,2008-02-16T13:00:00Z,30.1889,-90.1683,15.4,11111222 
LUMCON,ioos:station:LUMCON:103:1,2008-02-16T14:00:00Z,30.1889,-90.1683,15.7,11111222 
LUMCON,ioos:station:LUMCON:103:1,2008-02-16T15:00:00Z,30.1889,-90.1683,16.1,11111222 
LUMCON,ioos:station:LUMCON:103:1,2008-02-16T16:00:00Z,30.1889,-90.1683,17.2,11111222 
LUMCON,ioos:station:LUMCON:103:1,2008-02-16T17:00:00Z,30.1889,-90.1683,17.1,11111222 
LUMCON,ioos:station:LUMCON:103:1,2008-02-16T18:00:00Z,30.1889,-90.1683,17.5,11111222 
LUMCON,ioos:station:LUMCON:103:1,2008-02-16T19:00:00Z,30.1889,-90.1683,17.9,11111222 
LUMCON,ioos:station:LUMCON:103:1,2008-02-16T20:00:00Z,30.1889,-90.1683,18.1,11111222 
LUMCON,ioos:station:LUMCON:103:1,2008-02-16T21:00:00Z,30.1889,-90.1683,18.3,11111222 
LUMCON,ioos:station:LUMCON:103:1,2008-02-16T22:00:00Z,30.1889,-90.1683,18.1,11111222 
LUMCON,ioos:station:LUMCON:103:1,2008-02-16T23:00:00Z,30.1889,-90.1683,17.8,11111222 
LUMCON,ioos:station:LUMCON:103:1,2008-02-17T00:00:00Z,30.1889,-90.1683,17.3,11111222 
LUMCON,ioos:station:LUMCON:103:1,2008-02-17T01:00:00Z,30.1889,-90.1683,17.1,11111222 
LUMCON,ioos:station:LUMCON:103:1,2008-02-17T02:00:00Z,30.1889,-90.1683,17.0,11111222 
LUMCON,ioos:station:LUMCON:103:1,2008-02-17T03:00:00Z,30.1889,-90.1683,17.4,11111222 
LUMCON,ioos:station:LUMCON:103:1,2008-02-17T04:00:00Z,30.1889,-90.1683,17.7,11111222 
LUMCON,ioos:station:LUMCON:103:1,2008-02-17T05:00:00Z,30.1889,-90.1683,18.2,11111222 
LUMCON,ioos:station:LUMCON:103:1,2008-02-17T06:00:00Z,30.1889,-90.1683,18.4,11111222 
LUMCON,ioos:station:LUMCON:103:1,2008-02-17T07:00:00Z,30.1889,-90.1683,18.2,11111222 
LUMCON,ioos:station:LUMCON:103:1,2008-02-17T08:00:00Z,30.1889,-90.1683,18.3,11111222 
LUMCON,ioos:station:LUMCON:103:1,2008-02-17T09:00:00Z,30.1889,-90.1683,19.1,11111222 
LUMCON,ioos:station:LUMCON:103:1,2008-02-17T10:00:00Z,30.1889,-90.1683,19.5,11111222 
LUMCON,ioos:station:LUMCON:103:1,2008-02-17T11:00:00Z,30.1889,-90.1683,19.1,11111222 
LUMCON,ioos:station:LUMCON:103:1,2008-02-17T12:00:00Z,30.1889,-90.1683,17.4,11111222 
LUMCON,ioos:station:LUMCON:103:1,2008-02-17T13:00:00Z,30.1889,-90.1683,16.2,11111222 
LUMCON,ioos:station:LUMCON:103:1,2008-02-17T14:00:00Z,30.1889,-90.1683,16.4,11111222 
LUMCON,ioos:station:LUMCON:103:1,2008-02-17T15:00:00Z,30.1889,-90.1683,16.5,11111222 
LUMCON,ioos:station:LUMCON:103:1,2008-02-17T16:00:00Z,30.1889,-90.1683,15.6,11111222 
LUMCON,ioos:station:LUMCON:103:1,2008-02-17T17:00:00Z,30.1889,-90.1683,14.9,11111222 
LUMCON,ioos:station:LUMCON:103:1,2008-02-17T18:00:00Z,30.1889,-90.1683,15.2,11111222 
LUMCON,ioos:station:LUMCON:103:1,2008-02-17T19:00:00Z,30.1889,-90.1683,16.7,11111222 
LUMCON,ioos:station:LUMCON:103:1,2008-02-17T20:00:00Z,30.1889,-90.1683,18.2,11111222 
LUMCON,ioos:station:LUMCON:103:1,2008-02-17T21:00:00Z,30.1889,-90.1683,18.4,11111222 
LUMCON,ioos:station:LUMCON:103:1,2008-02-17T22:00:00Z,30.1889,-90.1683,18.8,11111222 
LUMCON,ioos:station:LUMCON:103:1,2008-02-17T23:00:00Z,30.1889,-90.1683,18.9,11111222 
LUMCON,ioos:station:LUMCON:103:1,2008-02-18T00:00:00Z,30.1889,-90.1683,19.2,11111222 
LUMCON,ioos:station:LUMCON:103:1,2008-02-18T01:00:00Z,30.1889,-90.1683,18.4,11111222 
LUMCON,ioos:station:LUMCON:103:1,2008-02-18T02:00:00Z,30.1889,-90.1683,17.3,11111222 
LUMCON,ioos:station:LUMCON:103:1,2008-02-18T03:00:00Z,30.1889,-90.1683,16.5,11111222 
LUMCON,ioos:station:LUMCON:103:1,2008-02-18T04:00:00Z,30.1889,-90.1683,15.7,11111222 
LUMCON,ioos:station:LUMCON:103:1,2008-02-18T05:00:00Z,30.1889,-90.1683,15.2,11111222 
LUMCON,ioos:station:LUMCON:103:1,2008-02-18T06:00:00Z,30.1889,-90.1683,15.8,11111222 
LUMCON,ioos:station:LUMCON:103:1,2008-02-18T07:00:00Z,30.1889,-90.1683,15.0,11111222 
LUMCON,ioos:station:LUMCON:103:1,2008-02-18T08:00:00Z,30.1889,-90.1683,13.9,11111222 
LUMCON,ioos:station:LUMCON:103:1,2008-02-18T09:00:00Z,30.1889,-90.1683,12.4,11111222 
LUMCON,ioos:station:LUMCON:103:1,2008-02-18T10:00:00Z,30.1889,-90.1683,11.4,11111222 
LUMCON,ioos:station:LUMCON:103:1,2008-02-18T11:00:00Z,30.1889,-90.1683,10.6,11111222 
LUMCON,ioos:station:LUMCON:103:1,2008-02-18T12:00:00Z,30.1889,-90.1683,10.1,11111222 
LUMCON,ioos:station:LUMCON:103:1,2008-02-18T13:00:00Z,30.1889,-90.1683,9.6,11111222 
LUMCON,ioos:station:LUMCON:103:1,2008-02-18T14:00:00Z,30.1889,-90.1683,9.8,11111222 
LUMCON,ioos:station:LUMCON:103:1,2008-02-18T15:00:00Z,30.1889,-90.1683,10.2,11111222 
LUMCON,ioos:station:LUMCON:103:1,2008-02-18T16:00:00Z,30.1889,-90.1683,10.9,11111222 
LUMCON,ioos:station:LUMCON:103:1,2008-02-18T17:00:00Z,30.1889,-90.1683,11.8,11111222 
LUMCON,ioos:station:LUMCON:103:1,2008-02-18T18:00:00Z,30.1889,-90.1683,12.9,11111222 
LUMCON,ioos:station:LUMCON:103:1,2008-02-18T19:00:00Z,30.1889,-90.1683,14.0,11111222 
LUMCON,ioos:station:LUMCON:103:1,2008-02-18T20:00:00Z,30.1889,-90.1683,15.1,11111222 
LUMCON,ioos:station:LUMCON:103:1,2008-02-18T21:00:00Z,30.1889,-90.1683,16.0,11111222 
LUMCON,ioos:station:LUMCON:103:1,2008-02-18T22:00:00Z,30.1889,-90.1683,16.5,11111222 
LUMCON,ioos:station:LUMCON:103:1,2008-02-18T23:00:00Z,30.1889,-90.1683,16.7,11111222 
LUMCON,ioos:station:LUMCON:103:1,2008-02-19T00:00:00Z,30.1889,-90.1683,15.6,11111222 
LUMCON,ioos:station:LUMCON:103:1,2008-02-19T01:00:00Z,30.1889,-90.1683,14.5,11111222 
LUMCON,ioos:station:LUMCON:103:1,2008-02-19T02:00:00Z,30.1889,-90.1683,13.8,11111222 
LUMCON,ioos:station:LUMCON:103:1,2008-02-19T03:00:00Z,30.1889,-90.1683,13.0,11111222 
LUMCON,ioos:station:LUMCON:103:1,2008-02-19T04:00:00Z,30.1889,-90.1683,12.1,11111222 
LUMCON,ioos:station:LUMCON:103:1,2008-02-19T05:00:00Z,30.1889,-90.1683,11.6,11111222 
LUMCON,ioos:station:LUMCON:103:1,2008-02-19T06:00:00Z,30.1889,-90.1683,10.8,11111222 
LUMCON,ioos:station:LUMCON:103:1,2008-02-19T07:00:00Z,30.1889,-90.1683,10.8,11111222 
LUMCON,ioos:station:LUMCON:103:1,2008-02-19T08:00:00Z,30.1889,-90.1683,10.5,11111222 
LUMCON,ioos:station:LUMCON:103:1,2008-02-19T09:00:00Z,30.1889,-90.1683,10.6,11111222 
LUMCON,ioos:station:LUMCON:103:1,2008-02-19T10:00:00Z,30.1889,-90.1683,9.8,11111222 
LUMCON,ioos:station:LUMCON:103:1,2008-02-19T11:00:00Z,30.1889,-90.1683,8.9,11111222 
LUMCON,ioos:station:LUMCON:103:1,2008-02-19T12:00:00Z,30.1889,-90.1683,9.2,11111222 
LUMCON,ioos:station:LUMCON:103:1,2008-02-19T13:00:00Z,30.1889,-90.1683,9.6,11111222 
LUMCON,ioos:station:LUMCON:103:1,2008-02-19T14:00:00Z,30.1889,-90.1683,11.6,11111222 
LUMCON,ioos:station:LUMCON:103:1,2008-02-19T15:00:00Z,30.1889,-90.1683,12.8,11111222 
LUMCON,ioos:station:LUMCON:103:1,2008-02-19T16:00:00Z,30.1889,-90.1683,13.4,11111222 
LUMCON,ioos:station:LUMCON:103:1,2008-02-19T17:00:00Z,30.1889,-90.1683,13.0,11111222 
LUMCON,ioos:station:LUMCON:103:1,2008-02-19T18:00:00Z,30.1889,-90.1683,14.7,11111222 
LUMCON,ioos:station:LUMCON:103:1,2008-02-19T19:00:00Z,30.1889,-90.1683,15.1,11111222 
LUMCON,ioos:station:LUMCON:103:1,2008-02-19T20:00:00Z,30.1889,-90.1683,15.5,11111222 
LUMCON,ioos:station:LUMCON:103:1,2008-02-19T21:00:00Z,30.1889,-90.1683,15.6,11111222 
LUMCON,ioos:station:LUMCON:103:1,2008-02-19T22:00:00Z,30.1889,-90.1683,16.0,11111222 
LUMCON,ioos:station:LUMCON:103:1,2008-02-19T23:00:00Z,30.1889,-90.1683,16.1,11111222 
LUMCON,ioos:station:LUMCON:103:1,2008-02-20T00:00:00Z,30.1889,-90.1683,15.8,11111222 
LUMCON,ioos:station:LUMCON:103:1,2008-02-20T01:00:00Z,30.1889,-90.1683,15.6,11111222 
LUMCON,ioos:station:LUMCON:103:1,2008-02-20T02:00:00Z,30.1889,-90.1683,15.7,11111222 
LUMCON,ioos:station:LUMCON:103:1,2008-02-20T03:00:00Z,30.1889,-90.1683,15.5,11111222 
LUMCON,ioos:station:LUMCON:103:1,2008-02-20T04:00:00Z,30.1889,-90.1683,15.2,11111222 
LUMCON,ioos:station:LUMCON:103:1,2008-02-20T05:00:00Z,30.1889,-90.1683,15.2,11111222 
LUMCON,ioos:station:LUMCON:103:1,2008-02-20T06:00:00Z,30.1889,-90.1683,15.2,11111222 
LUMCON,ioos:station:LUMCON:103:1,2008-02-20T07:00:00Z,30.1889,-90.1683,15.4,11111222 
LUMCON,ioos:station:LUMCON:103:1,2008-02-20T08:00:00Z,30.1889,-90.1683,15.3,11111222 
LUMCON,ioos:station:LUMCON:103:1,2008-02-20T09:00:00Z,30.1889,-90.1683,15.2,11111222 
LUMCON,ioos:station:LUMCON:103:1,2008-02-20T10:00:00Z,30.1889,-90.1683,15.2,11111222 
LUMCON,ioos:station:LUMCON:103:1,2008-02-20T11:00:00Z,30.1889,-90.1683,15.2,11111222 
LUMCON,ioos:station:LUMCON:103:1,2008-02-20T12:00:00Z,30.1889,-90.1683,15.4,11111222 
LUMCON,ioos:station:LUMCON:103:1,2008-02-20T13:00:00Z,30.1889,-90.1683,15.4,11111222 
LUMCON,ioos:station:LUMCON:103:1,2008-02-20T14:00:00Z,30.1889,-90.1683,15.4,11111222 
LUMCON,ioos:station:LUMCON:103:1,2008-02-20T15:00:00Z,30.1889,-90.1683,15.9,11111222 
LUMCON,ioos:station:LUMCON:103:1,2008-02-20T16:00:00Z,30.1889,-90.1683,16.3,11111222 
LUMCON,ioos:station:LUMCON:103:1,2008-02-20T17:00:00Z,30.1889,-90.1683,16.9,11111222 
LUMCON,ioos:station:LUMCON:103:1,2008-02-20T18:00:00Z,30.1889,-90.1683,17.4,11111222 
LUMCON,ioos:station:LUMCON:103:1,2008-02-20T19:00:00Z,30.1889,-90.1683,17.7,11111222 
LUMCON,ioos:station:LUMCON:103:1,2008-02-20T20:00:00Z,30.1889,-90.1683,17.6,11111222 
LUMCON,ioos:station:LUMCON:103:1,2008-02-20T21:00:00Z,30.1889,-90.1683,17.7,11111222 
LUMCON,ioos:station:LUMCON:103:1,2008-02-20T22:00:00Z,30.1889,-90.1683,17.6,11111222 
LUMCON,ioos:station:LUMCON:103:1,2008-02-20T23:00:00Z,30.1889,-90.1683,17.4,11111222 
LUMCON,ioos:station:LUMCON:103:1,2008-02-21T00:00:00Z,30.1889,-90.1683,17.1,11111222 
LUMCON,ioos:station:LUMCON:103:1,2008-02-21T01:00:00Z,30.1889,-90.1683,17.1,11111222 
LUMCON,ioos:station:LUMCON:103:1,2008-02-21T02:00:00Z,30.1889,-90.1683,17.1,11111222 
LUMCON,ioos:station:LUMCON:103:1,2008-02-21T03:00:00Z,30.1889,-90.1683,17.0,11111222 
LUMCON,ioos:station:LUMCON:103:1,2008-02-21T04:00:00Z,30.1889,-90.1683,16.8,11111222 
LUMCON,ioos:station:LUMCON:103:1,2008-02-21T05:00:00Z,30.1889,-90.1683,16.9,11111222 
LUMCON,ioos:station:LUMCON:103:1,2008-02-21T06:00:00Z,30.1889,-90.1683,17.4,11111222 
LUMCON,ioos:station:LUMCON:103:1,2008-02-21T07:00:00Z,30.1889,-90.1683,17.5,11111222 
LUMCON,ioos:station:LUMCON:103:1,2008-02-21T08:00:00Z,30.1889,-90.1683,17.6,11111222 
LUMCON,ioos:station:LUMCON:103:1,2008-02-21T09:00:00Z,30.1889,-90.1683,17.4,11111222 
LUMCON,ioos:station:LUMCON:103:1,2008-02-21T10:00:00Z,30.1889,-90.1683,17.7,11111222 
LUMCON,ioos:station:LUMCON:103:1,2008-02-21T11:00:00Z,30.1889,-90.1683,17.4,11111222 
LUMCON,ioos:station:LUMCON:103:1,2008-02-21T12:00:00Z,30.1889,-90.1683,17.6,11111222 
LUMCON,ioos:station:LUMCON:103:1,2008-02-21T13:00:00Z,30.1889,-90.1683,18.4,11111222 
LUMCON,ioos:station:LUMCON:103:1,2008-02-21T14:00:00Z,30.1889,-90.1683,18.9,11111222 
LUMCON,ioos:station:LUMCON:103:1,2008-02-21T15:00:00Z,30.1889,-90.1683,19.1,11111222 
LUMCON,ioos:station:LUMCON:103:1,2008-02-21T16:00:00Z,30.1889,-90.1683,19.5,11111222 
LUMCON,ioos:station:LUMCON:103:1,2008-02-21T17:00:00Z,30.1889,-90.1683,19.8,11111222 
LUMCON,ioos:station:LUMCON:103:1,2008-02-21T18:00:00Z,30.1889,-90.1683,20.2,11111222 
LUMCON,ioos:station:LUMCON:103:1,2008-02-21T19:00:00Z,30.1889,-90.1683,20.5,11111222 
LUMCON,ioos:station:LUMCON:103:1,2008-02-21T20:00:00Z,30.1889,-90.1683,22.5,11111222 
LUMCON,ioos:station:LUMCON:103:1,2008-02-21T21:00:00Z,30.1889,-90.1683,20.6,11111222 
LUMCON,ioos:station:LUMCON:103:1,2008-02-21T22:00:00Z,30.1889,-90.1683,20.2,11111222 
LUMCON,ioos:station:LUMCON:103:1,2008-02-21T23:00:00Z,30.1889,-90.1683,20.4,11111222 
LUMCON,ioos:station:LUMCON:103:1,2008-02-22T00:00:00Z,30.1889,-90.1683,20.3,11111222 
LUMCON,ioos:station:LUMCON:103:1,2008-02-22T01:00:00Z,30.1889,-90.1683,20.1,11111222 
LUMCON,ioos:station:LUMCON:103:1,2008-02-22T02:00:00Z,30.1889,-90.1683,19.9,11111222 
LUMCON,ioos:station:LUMCON:103:1,2008-02-25T17:00:00Z,30.1889,-90.1683,18.0,11111222 
LUMCON,ioos:station:LUMCON:103:1,2008-02-25T18:00:00Z,30.1889,-90.1683,17.4,11111222 
LUMCON,ioos:station:LUMCON:103:1,2008-02-25T19:00:00Z,30.1889,-90.1683,18.5,11111222 
LUMCON,ioos:station:LUMCON:103:1,2008-02-25T20:00:00Z,30.1889,-90.1683,18.9,11111222 
LUMCON,ioos:station:LUMCON:103:1,2008-02-25T21:00:00Z,30.1889,-90.1683,19.5,11111222 
LUMCON,ioos:station:LUMCON:103:1,2008-02-25T22:00:00Z,30.1889,-90.1683,20.0,11111222 
LUMCON,ioos:station:LUMCON:103:1,2008-02-25T23:00:00Z,30.1889,-90.1683,20.8,11111222 
LUMCON,ioos:station:LUMCON:103:1,2008-02-26T00:00:00Z,30.1889,-90.1683,20.7,11111222 
LUMCON,ioos:station:LUMCON:103:1,2008-02-26T01:00:00Z,30.1889,-90.1683,20.2,11111222 
LUMCON,ioos:station:LUMCON:103:1,2008-02-26T02:00:00Z,30.1889,-90.1683,20.1,11111222 
LUMCON,ioos:station:LUMCON:103:1,2008-02-26T03:00:00Z,30.1889,-90.1683,20.0,11111222 
LUMCON,ioos:station:LUMCON:103:1,2008-02-26T04:00:00Z,30.1889,-90.1683,20.1,11111222 
LUMCON,ioos:station:LUMCON:103:1,2008-02-26T05:00:00Z,30.1889,-90.1683,20.3,11111222 
LUMCON,ioos:station:LUMCON:103:1,2008-02-26T06:00:00Z,30.1889,-90.1683,20.8,11111222 
LUMCON,ioos:station:LUMCON:103:1,2008-02-26T07:00:00Z,30.1889,-90.1683,20.6,11111222 
LUMCON,ioos:station:LUMCON:103:1,2008-02-26T08:00:00Z,30.1889,-90.1683,21.2,11111222 
LUMCON,ioos:station:LUMCON:103:1,2008-02-26T09:00:00Z,30.1889,-90.1683,21.0,11111222 
LUMCON,ioos:station:LUMCON:103:1,2008-02-26T10:00:00Z,30.1889,-90.1683,21.5,11111222 
LUMCON,ioos:station:LUMCON:103:1,2008-02-26T11:00:00Z,30.1889,-90.1683,21.5,11111222 
LUMCON,ioos:station:LUMCON:103:1,2008-02-26T12:00:00Z,30.1889,-90.1683,19.1,11111222 
LUMCON,ioos:station:LUMCON:103:1,2008-02-26T13:00:00Z,30.1889,-90.1683,19.1,11111222 
LUMCON,ioos:station:LUMCON:103:1,2008-02-26T14:00:00Z,30.1889,-90.1683,17.9,11111222 
LUMCON,ioos:station:LUMCON:103:1,2008-02-26T15:00:00Z,30.1889,-90.1683,16.8,11111222 
LUMCON,ioos:station:LUMCON:103:1,2008-02-26T16:00:00Z,30.1889,-90.1683,16.8,11111222 
LUMCON,ioos:station:LUMCON:103:1,2008-02-26T17:00:00Z,30.1889,-90.1683,16.3,11111222 
LUMCON,ioos:station:LUMCON:103:1,2008-02-26T18:00:00Z,30.1889,-90.1683,15.9,11111222 
LUMCON,ioos:station:LUMCON:103:1,2008-02-26T19:00:00Z,30.1889,-90.1683,15.3,11111222 
LUMCON,ioos:station:LUMCON:103:1,2008-02-26T20:00:00Z,30.1889,-90.1683,15.6,11111222 
LUMCON,ioos:station:LUMCON:103:1,2008-02-26T21:00:00Z,30.1889,-90.1683,15.9,11111222 
LUMCON,ioos:station:LUMCON:103:1,2008-02-26T22:00:00Z,30.1889,-90.1683,15.6,11111222 